Weather History for Bay City, TX

Change the Weather History Date:

Friday, February 14, 2014

  Actual Average (KLBX) Record (KLBX)
Temperature  
Mean Temperature 56 °F -  
Max Temperature 73 °F 64 °F 81 °F (2000)
Min Temperature 40 °F 48 °F 32 °F (2006)
Degree Days  
Heating Degree Days 8    
Growing Degree Days 6 (Base 50)    
Moisture  
Dew Point 52 °F    
Average Humidity 83    
Maximum Humidity 100    
Minimum Humidity 58    
Precipitation  
Precipitation 0.00 in - - ()
Sea Level Pressure  
Sea Level Pressure 29.94 in    
Wind  
Wind Speed 6 mph (SSW)    
Max Wind Speed 25 mph    
Max Gust Speed 34 mph    
Visibility 7 miles    
Events Fog    
Averages and records for this station are not official NWS values.
T = Trace of Precipitation, MM = Missing Value Source: NWS Daily Summary

Daily Weather History Graph

Daily Weather History Graph

Search for Another Location

Airport:

Trip Planner

Search our weather history database for the weather conditions in past years. The results will help you decide how hot, cold, wet, or windy it might be!

Date:

Astronomy

Feb. 14, 2014 Rise Set
Actual Time 7:02 AM CST 6:12 PM CST
Civil Twilight 6:38 AM CST 6:36 PM CST
Nautical Twilight 6:10 AM CST 7:04 PM CST
Astronomical Twilight 5:43 AM CST 7:32 PM CST
Moon 6:13 PM CST (2/14) 6:33 AM CST (2/14)
Length of Visible Light 11h 58m
Length of Day
11h 09m
Full, 100% of the Moon is Illuminated
Feb 14
Full
Feb 14
Full
Feb 22
Last Quarter
Mar 1
New
Mar 8
First Quarter

Hourly Weather History & Observations

Time (CST) Temp. Windchill Dew Point Humidity Pressure Visibility Wind Dir Wind Speed Gust Speed Precip Events Conditions
12:15 AM 42.1 °F - 41.5 °F 98% 29.99 in 7.0 mi Calm Calm - N/A   Clear
12:35 AM 41.9 °F - 41.4 °F 98% 29.98 in 1.8 mi Calm Calm - N/A   Mist
12:55 AM 40.8 °F 38.8 °F 40.3 °F 98% 29.98 in 2.5 mi ENE 3.5 mph - N/A   Clear
1:15 AM 41.0 °F 39.0 °F 40.6 °F 99% 29.97 in 2.0 mi ENE 3.5 mph - N/A   Clear
1:35 AM 40.5 °F - 40.1 °F 99% 29.96 in 2.5 mi Calm Calm - N/A   Clear
1:55 AM 40.6 °F - 40.3 °F 99% 29.96 in 4.0 mi Calm Calm - N/A   Clear
2:15 AM 40.6 °F - 40.3 °F 99% 29.95 in 3.0 mi Calm Calm - N/A   Clear
2:35 AM 40.5 °F - 40.3 °F 99% 29.95 in 4.0 mi Calm Calm - N/A   Clear
2:55 AM 40.8 °F - 40.5 °F 99% 29.93 in 1.5 mi Calm Calm - N/A   Mist
3:15 AM 41.2 °F - 40.8 °F 99% 29.93 in 0.5 mi Calm Calm - N/A Fog Fog
3:35 AM 41.0 °F - 40.6 °F 99% 29.92 in 0.2 mi Calm Calm - N/A Fog Fog
3:55 AM 40.8 °F - 40.5 °F 99% 29.92 in 0.2 mi Calm Calm - N/A Fog Fog
4:15 AM 41.2 °F - 41.0 °F 99% 29.92 in 0.2 mi Calm Calm - N/A Fog Fog
4:35 AM 41.7 °F 38.8 °F 41.5 °F 99% 29.91 in 0.2 mi SSE 4.6 mph - N/A Fog Fog
4:55 AM 41.7 °F 38.8 °F 41.5 °F 99% 29.91 in 0.2 mi SSE 4.6 mph - N/A Fog Fog
5:15 AM 43.5 °F 41.9 °F 43.3 °F 99% 29.91 in 0.2 mi SSW 3.5 mph - N/A Fog Fog
5:35 AM 43.2 °F - 43.0 °F 99% 29.93 in 0.2 mi Calm Calm - N/A Fog Fog
5:55 AM 42.1 °F - 41.9 °F 99% 29.93 in 0.5 mi Calm Calm - N/A Fog Fog
6:15 AM 42.1 °F - 41.7 °F 99% 29.93 in 0.5 mi Calm Calm - N/A Fog Fog
6:35 AM 42.4 °F - 42.3 °F 99% 29.94 in 0.2 mi Calm Calm - N/A Fog Fog
6:55 AM 42.8 °F - 42.6 °F 99% 29.95 in 0.2 mi Calm Calm - N/A Fog Fog
7:15 AM 43.0 °F 41.3 °F 42.8 °F 99% 29.93 in 0.2 mi SE 3.5 mph - N/A Fog Fog
7:35 AM 42.8 °F - 42.6 °F 99% 29.93 in 0.2 mi Calm Calm - N/A Fog Fog
7:55 AM 45.7 °F 43.4 °F 45.7 °F 100% 29.92 in 0.2 mi SSE 4.6 mph - N/A Fog Fog
8:15 AM 49.1 °F - 48.9 °F 99% 29.91 in 0.2 mi Calm Calm - N/A Fog Fog
8:35 AM 52.2 °F - 51.8 °F 99% 29.93 in 1.0 mi South 3.5 mph - N/A   Mostly Cloudy
8:55 AM 56.1 °F - 55.9 °F 99% 29.93 in 10.0 mi South 6.9 mph - N/A   Clear
9:15 AM 58.6 °F - 58.5 °F 99% 29.93 in 10.0 mi South 8.1 mph - N/A   Clear
9:35 AM 61.5 °F - 61.2 °F 99% 29.94 in 10.0 mi SSW 12.7 mph - N/A   Clear
9:55 AM 64.4 °F - 63.1 °F 96% 29.94 in 10.0 mi SSW 15.0 mph - N/A   Clear
10:15 AM 67.1 °F - 62.6 °F 85% 29.94 in 10.0 mi SSW 20.7 mph 26.5 mph N/A   Scattered Clouds
10:35 AM 70.2 °F - 61.3 °F 74% 29.94 in 10.0 mi SSW 19.6 mph 25.3 mph N/A   Scattered Clouds
10:55 AM 71.2 °F - 61.3 °F 71% 29.93 in 10.0 mi SSW 19.6 mph 29.9 mph N/A   Scattered Clouds
11:15 AM 70.9 °F - 61.0 °F 71% 29.93 in 10.0 mi SSW 19.6 mph 31.1 mph N/A   Scattered Clouds
11:35 AM 72.3 °F - 60.8 °F 67% 29.92 in 10.0 mi SSW 25.3 mph 34.5 mph N/A   Scattered Clouds
11:55 AM 73.0 °F - 60.4 °F 65% 29.92 in 10.0 mi SSW 19.6 mph 33.4 mph N/A   Mostly Cloudy
12:15 PM 72.7 °F - 60.6 °F 66% 29.92 in 10.0 mi SW 21.9 mph 34.5 mph N/A   Mostly Cloudy
12:35 PM 73.2 °F - 60.3 °F 64% 29.91 in 10.0 mi SW 24.2 mph 28.8 mph N/A   Scattered Clouds
12:55 PM 73.4 °F - 59.9 °F 63% 29.90 in 10.0 mi SSW 24.2 mph 29.9 mph N/A   Scattered Clouds
1:15 PM 73.6 °F - 59.7 °F 62% 29.89 in 10.0 mi SSW 24.2 mph 33.4 mph N/A   Clear
1:35 PM 73.4 °F - 59.5 °F 62% 29.88 in 10.0 mi SSW 21.9 mph 31.1 mph N/A   Clear
1:55 PM 73.6 °F - 59.4 °F 61% 29.88 in 10.0 mi SSW 25.3 mph 32.2 mph N/A   Clear
2:15 PM 73.8 °F - 58.6 °F 59% 29.87 in 10.0 mi SSW 23.0 mph 31.1 mph N/A   Clear
2:35 PM 73.8 °F - 59.2 °F 60% 29.86 in 10.0 mi SW 23.0 mph 27.6 mph N/A   Clear
2:55 PM 73.4 °F - 59.7 °F 62% 29.86 in 10.0 mi SSW 20.7 mph 31.1 mph N/A   Clear
3:15 PM 73.0 °F - 59.5 °F 62% 29.86 in 10.0 mi SSW 21.9 mph 25.3 mph N/A   Clear
3:35 PM 73.4 °F - 59.2 °F 61% 29.86 in 10.0 mi SSW 16.1 mph - N/A   Clear
3:55 PM 73.6 °F - 59.0 °F 60% 29.87 in 10.0 mi SW 15.0 mph - N/A   Clear
4:15 PM 73.0 °F - 59.2 °F 62% 29.87 in 10.0 mi SSW 13.8 mph - N/A   Clear
4:35 PM 72.7 °F - 59.4 °F 63% 29.88 in 10.0 mi SSW 11.5 mph 16.1 mph N/A   Clear
4:55 PM 72.3 °F - 59.5 °F 64% 29.89 in 10.0 mi SSW 11.5 mph - N/A   Clear
5:15 PM 71.6 °F - 59.5 °F 66% 29.89 in 10.0 mi SW 9.2 mph - N/A   Clear
5:35 PM 70.9 °F - 59.7 °F 68% 29.90 in 10.0 mi SSW 8.1 mph - N/A   Clear
5:55 PM 69.3 °F - 59.7 °F 72% 29.91 in 10.0 mi SW 4.6 mph - N/A   Clear
6:15 PM 67.1 °F - 59.2 °F 76% 29.92 in 10.0 mi SW 5.8 mph - N/A   Clear
6:35 PM 64.4 °F - 58.8 °F 82% 29.92 in 10.0 mi SW 3.5 mph - N/A   Clear
6:55 PM 63.7 °F - 58.8 °F 84% 29.94 in 10.0 mi SW 3.5 mph - N/A   Clear
7:15 PM 57.2 °F - 57.7 °F 100% 29.94 in 10.0 mi Calm Calm - N/A   Clear
7:35 PM 59.7 °F - 57.6 °F 93% 29.95 in 10.0 mi Calm Calm - N/A   Clear
7:55 PM 58.1 °F - 56.7 °F 95% 29.97 in 7.0 mi Calm Calm - N/A   Clear
8:15 PM 57.4 °F - 56.3 °F 96% 29.97 in 10.0 mi SW 3.5 mph - N/A   Clear
8:35 PM 57.0 °F - 56.1 °F 97% 29.99 in 10.0 mi West 3.5 mph - N/A   Clear
8:55 PM 56.8 °F - 55.4 °F 95% 30.01 in 5.0 mi Calm Calm - N/A   Clear
9:15 PM 55.6 °F - 54.7 °F 97% 30.01 in 5.0 mi North 4.6 mph - N/A   Clear
9:35 PM 56.8 °F - 53.1 °F 87% 30.02 in 10.0 mi North 5.8 mph - N/A   Clear
9:55 PM 56.8 °F - 49.1 °F 75% 30.03 in 10.0 mi North 5.8 mph - N/A   Clear
10:15 PM 58.8 °F - 47.1 °F 65% 30.04 in 10.0 mi NNW 6.9 mph - N/A   Clear
10:35 PM 59.7 °F - 45.7 °F 60% 30.05 in 10.0 mi NNW 5.8 mph - N/A   Clear
10:55 PM 57.2 °F - 45.0 °F 64% 30.05 in 10.0 mi North 8.1 mph - N/A   Clear
11:15 PM 57.0 °F - 44.1 °F 62% 30.06 in 10.0 mi NNW 4.6 mph - N/A   Clear
11:35 PM 58.1 °F - 43.2 °F 58% 30.06 in 10.0 mi NNW 4.6 mph - N/A   Clear
11:55 PM 56.7 °F - 42.8 °F 60% 30.06 in 10.0 mi Calm Calm - N/A   Clear